Location: Bun Machan
(52.1403°N, 7.3744°W)
Time: 02:30:20
(UTC+00:00)

Cosmos 1697 Rocket - Pass Details

Date: 14 July 2020
Orbit: 834 x 842 km, 71.0° (Epoch: 04 August)

Event Time Altitude Azimuth Distance (km) Brightness Sun altitude
Rises 02:05:43 0° 329° (NNW) 3,401 6.4 -13.6°
Reaches altitude 10° 02:08:10 10° 330° (NNW) 2,462 5.6 -13.5°
Maximum altitude 02:13:51 86° 60° (ENE) 845 2.7 -13.2°
Drops below altitude 10° 02:19:28 10° 149° (SSE) 2,441 4.8 -12.8°
Sets 02:21:53 0° 150° (SSE) 3,371 5.5 -12.7°
